Location: Dötzum
(52.0808°N, 9.8063°E)
Time: 05:43:13
(UTC+00:00)

Cosmos 1025 Rocket - Pass Details

Date: 27 May 2022
Orbit: 593 x 618 km, 82.5° (Epoch: 24 June)

Event Time Altitude Azimuth Distance (km) Brightness Sun altitude
Exits shadow 01:00:10 21° 193° (SSW) 1,385 4.2 -13.3°
Maximum altitude 01:03:03 84° 280° (W) 614 3.0 -13.1°
Drops below altitude 10° 01:07:23 10° 10° (N) 1,953 6.9 -12.9°
Sets 01:09:36 0° 11° (N) 2,857 8.1 -12.7°
